User: anonymous
Location: Morehead State University
(38.1872°N, 83.4339°W)
Time: 07:04:24
(UTC-04:00)
Language:

Okean 2 - Orbit

View from above orbital plane
View from above orbital plane
View from above satellite
View from above satellite

Ground track
Ground track

The orbit data is extracted from the following two-line orbital elements,

1 20510U 90018A   14237.70844391  .00001251  00000-0  10888-3 0  8029
2 20510 082.5146 075.7036 0012951 198.6962 206.7451 14.96096809327776
Epoch (UTC): 25 August 2014 17:00:09
Eccentricity: 0.0012951
inclination: 82.5146°
perigee height: 570 km
apogee height: 588 km
right ascension of ascending node: 75.7036°
argument of perigee: 198.6962°
revolutions per day: 14.96096809
mean anomaly at epoch: 206.7451°
orbit number at epoch: 32777

The dashed part of the orbit path shows where the satellite is in the earth's shadow,  

DLR